Regional Weather Roundup
Issued by NWS

Home | Current Version | Previous Version | Graphics & Text | Print | Product List | Glossary On
Versions: 1 2 3 4 5 6 7 8 9 10 11 12 13 14 15 16 17 18 19 20 21 22 23 24 25 26 27 28 29 30 31 32 33 34 35 36 37 38 39 40 41 42 43 44 45 46 47 48 49 50
000
ASUS43 KIND 200159
RWRIN

WEATHER ROUNDUP FOR INDIANA
NATIONAL WEATHER SERVICE INDIANAPOLIS IN
900 PM EST SUN FEB 19 2017

NOTE: "FAIR" INDICATES FEW OR NO CLOUDS BELOW 12,000 FEET WITH NO
SIGNIFICANT WEATHER AND/OR OBSTRUCTIONS TO VISIBILITY.

* - STATION DOES NOT REPORT WEATHER SUCH AS PRECIPITATION OR FOG.

+ - STATION NOT QUALITY CONTROLLED BY THE NATIONAL WEATHER SERVICE.
    USE DATA WITH CAUTION...ESPECIALLY DEWPOINT AND RELATIVE
    HUMIDITY OBSERVATIONS.

INZ001>003-010>013-019-020-200300-
NORTHWEST INDIANA

CITY           SKY/WX    TMP DP  RH WIND       PRES   REMARKS
GARY /AIRPORT/ PTCLDY    39  32  75 SE3       30.09S
KNOX *+        CLOUDY    43  16  33 CALM      30.10R
MONTICELLO +   CLEAR     46  41  82 CALM      30.10R

$$

LMZ046-743>745-200300-
SOUTHERN LAKE MICHIGAN

STATION/POSITION TIME  TEMP    WIND        PRES    WAVE
                       AIR SEA DIR/SP/G            HT
                 (UTC) (F)     (DEG/KT/KT) (MB)    (FT)
BURNS HARBOR     0140   49      CALM  /  2 1019.3S
MICHIGAN CITY    0130   53     120/  4/  4   N/A

$$

INZ004-005-014>016-021>024-200300-
NORTH CENTRAL INDIANA

CITY           SKY/WX    TMP DP  RH WIND       PRES   REMARKS
GOSHEN         CLOUDY    44  32  62 CALM      30.10S
PERU/GRISSOM   CLEAR     48  45  87 SE3       30.10R HAZE
SOUTH BEND     CLOUDY    41  28  60 CALM      30.11R

$$

INZ006>009-017-018-025>027-200300-
NORTHEAST INDIANA

CITY           SKY/WX    TMP DP  RH WIND       PRES   REMARKS
ANGOLA *+      CLEAR     41  34  75 CALM      30.11R
FORT WAYNE     PTCLDY    45  34  65 SW3       30.11S
KENDALLVILLE + CLEAR     46  34  64 CALM      30.11S

$$

INZ028-029-035-036-043>045-051>053-200300-
WEST CENTRAL INDIANA

CITY           SKY/WX    TMP DP  RH WIND       PRES   REMARKS
LAFAYETTE      CLEAR     47  40  76 CALM      30.09S
TERRE HAUTE    CLEAR     48  43  82 CALM      30.11R

$$

INZ030>032-037>040-046>048-054>057-064-065-200300-
CENTRAL INDIANA

CITY           SKY/WX    TMP DP  RH WIND       PRES   REMARKS
COLUMBUS       CLEAR     45  45 100 CALM      30.14R
GREENWOOD *+   CLEAR     53  47  80 SE6       30.12R
INDIANAPOLIS   PTCLDY    52  45  77 S7        30.12R
-EAGLE CREEK   CLEAR     54  45  71 S3        30.11R
KOKOMO +       CLEAR     46  43  89 E3        30.12R
MT COMFORT *+  PTCLDY    46  43  87 S6        30.12R
SHELBYVILLE    CLEAR     46  42  86 SE7       30.12R

$$

INZ033-034-041-042-049-050-058-059-200300-
EAST CENTRAL INDIANA

CITY           SKY/WX    TMP DP  RH WIND       PRES   REMARKS
MUNCIE         CLEAR     53  44  71 S5        30.11S

$$

INZ060-061-067>069-081>083-085>088-200300-
SOUTHWEST INDIANA

CITY           SKY/WX    TMP DP  RH WIND       PRES   REMARKS
EVANSVILLE     CLEAR     49  47  93 CALM      30.12S FOG
HUNTINGBURG *+ CLEAR     48  46  93 SE3       30.13S

$$

INZ062-063-066-070>080-084-089>092-200300-
SOUTH CENTRAL AND SOUTHEAST INDIANA

CITY           SKY/WX    TMP DP  RH WIND       PRES   REMARKS
BLOOMINGTON    CLEAR     46  40  79 CALM      30.11S
MADISON *+     CLEAR     43  41  93 CALM      30.15R
SEYMOUR +      PTCLDY    46  43  87 CALM      30.13R

$$




USA.gov is the U.S. government's official web portal to all federal, state and local government web resources and services.